Regional Weather Roundup
Issued by NWS Cleveland, OH

Home | Current Version | Previous Version | Graphics & Text | Print | Product List | Glossary On
Versions: 1 2 3 4 5 6 7 8 9 10 11 12 13 14 15 16 17 18 19 20 21 22 23 24 25 26 27 28 29 30 31 32 33 34 35 36 37 38 39 40 41 42 43 44 45 46 47 48 49 50
000
ASUS41 KCLE 031300
RWRCLE
OHIO REGIONAL WEATHER ROUNDUP
NATIONAL WEATHER SERVICE WILMINGTON, OH
900 AM EDT MON AUG 03 2015

NOTE: "FAIR" INDICATES FEW OR NO CLOUDS BELOW 12,000 FEET WITH NO
SIGNIFICANT WEATHER AND/OR OBSTRUCTIONS TO VISIBILITY.

OHZ001>008-015>018-024>027-034-035-043-044-031400-
   NORTHWEST OHIO

CITY           SKY/WX    TMP DP  RH WIND       PRES   REMARKS
DEFIANCE       PTSUNNY   68  63  84 VRB7      29.82R
FINDLAY        PTSUNNY   67  62  84 SW7       29.80S
TOLEDO EXPRESS MOSUNNY   66  62  87 SW10      29.80S
TOLEDO EXEC    MOSUNNY   67  61  81 W9        29.81R
LIMA           PTSUNNY   66  61  84 SW13      29.81F
$$

OHZ009>014-019>023-028>033-038-089-031400-
   NORTHEAST OHIO

CITY           SKY/WX    TMP DP  RH WIND       PRES   REMARKS
CLE-HOPKINS    PTSUNNY   68  61  78 SW10      29.81S
CLE-LAKEFRONT  PTSUNNY   71  59  65 SW14      29.78R
CUY CO. ARPT   PTSUNNY   70  61  73 SW14      29.79R
LORAIN-ELYRIA  PTSUNNY   69  60  73 SW10      29.80S
ASHTABULA      PTSUNNY   67  59  75 SW13      29.80R
AKRON-CANTON   PTSUNNY   67  58  72 SW8       29.82R
WOOSTER        NOT AVBL
MANSFIELD      CLOUDY    67  60  78 SW15      29.83S
YOUNGSTOWN     CLOUDY    67  59  75 SW10      29.81R
$$

OHZ042-051>053-060>062-070>072-077>081-031400-
  SOUTHWEST OHIO

CITY           SKY/WX    TMP DP  RH WIND       PRES   REMARKS
CINC-COVINGTON PTSUNNY   65  65 100 S8        29.90F
CINC-LUNKEN    CLOUDY    66  64  93 SW7       29.90S
HAMILTON       PTSUNNY   67  63  87 S5        29.89F
DAYTON         NOT AVBL
WRIGHT-PAT AFB NOT AVBL
DAYTON GENERAL NOT AVBL
WILMINGTON     CLOUDY    64  60  87 SE6       29.87R
$$

OHZ036-037-039>041-045>050-054>059-063>069-073>076-082>088-031400-
  CENTRAL AND SOUTHEAST OHIO

CITY           SKY/WX    TMP DP  RH WIND       PRES   REMARKS
COLUMBUS       CLOUDY    66  61  84 S9        29.84S
OSU AIRPORT    CLOUDY    67  61  81 S12       29.84R
BOLTON FIELD   NOT AVBL
RICKENBACK AFB NOT AVBL
NEWARK         CLOUDY    68  59  73 SW7       29.83F
MARION         CLOUDY    66  61  84 S13       29.82F
LANCASTER      CLOUDY    66  59  78 VRB3      29.84F
ZANESVILLE     CLOUDY    68  57  68 N9G18     29.84F
NEW PHILLY     CLOUDY    66  59  78 S6        29.84R
$$


USA.gov is the U.S. government's official web portal to all federal, state and local government web resources and services.